User: anonymous   Login
Location: Bergfeld
(52.0500°N, 11.7833°E)
Time: 15:32:35
(UTC+00:00)
Language:

GEOS 3 Rocket - Orbit

View from above orbital plane
View from above orbital plane
View from above satellite
View from above satellite

Ground track
Ground track

The orbit data is extracted from the following two-line orbital elements,

1  7735U 75027B   20151.91076024 -.00000116 +00000-0 +26230-4 0  9997
2  7735 114.9784 297.6012 0049524 312.7010 046.9906 14.24608600343828
Epoch (UTC): 30 May 2020 21:51:29
Eccentricity: 0.0049524
inclination: 114.9784°
perigee height: 774 km
apogee height: 845 km
right ascension of ascending node: 297.6012°
argument of perigee: 312.7010°
revolutions per day: 14.24608600
mean anomaly at epoch: 46.9906°
orbit number at epoch: 34382

The dashed part of the orbit path shows where the satellite is in the earth's shadow,  

DLR